This demonstration page uses our WeatherBlox Daily Observations layout. Learn more.

Left ArrowRight Arrow

41.12389, -100.76542

Hourly Observations for July 25, 2015

Temp ( °F °C ) Dew Point ( °F °C ) Humidity (%) Winds ( mph kmh ) Pressure ( in mb ) Visibility ( mi km ) Precip ( " mm )
12:53 am 00:53 Clear 67 19.4 65 18.3 93 93 ENE 6 9 29.91 1013 10 16 0.00 0.00
1:53 am 01:53 Clear 68 20 66 18.9 93 93 ENE 7 11 29.92 1013 10 16 0.00 0.00
4:53 am 04:53 Clear 66 18.9 64 17.8 93 93 Calm 29.90 1013 10 16 0.00 0.00
5:53 am 05:53 Clear 66 18.9 64 17.8 93 93 Calm 29.91 1013 10 16 0.00 0.00
6:53 am 06:53 Sunny 66 18.9 64 17.8 93 93 E 3 6 29.90 1012 10 16 0.00 0.00
7:53 am 07:53 Sunny 68 20 65 18.3 90 90 ENE 5 7 29.89 1012 10 16 0.00 0.00
8:53 am 08:53 Sunny 71 21.7 65 18.3 81 81 ESE 6 9 29.92 1013 10 16 0.00 0.00
9:53 am 09:53 Sunny 75 23.9 67 19.4 76 76 SE 3 6 29.92 1013 10 16 0.00 0.00
10:53 am 10:53 Sunny 80 26.7 67 19.4 64 64 S 7 11 29.90 1012 10 16 0.00 0.00
11:53 am 11:53 Sunny 85 29.4 68 20 57 57 S 14 22 29.88 1012 10 16 0.00 0.00
12:53 pm 12:53 Sunny 82 27.8 67 19.4 60 60 S 15 24 29.88 1012 10 16 0.00 0.00
1:53 pm 13:53 Sunny 83 28.3 68 20 61 61 S 8 13 29.88 1012 10 16 0.00 0.00
2:53 pm 14:53 Sunny 83 28.3 68 20 61 61 SE 6 9 29.87 1012 10 16 0.00 0.00
3:53 pm 15:53 Sunny 87 30.6 69 20.6 55 55 ESE 9 15 29.86 1011 10 16 0.00 0.00
4:53 pm 16:53 Mostly Sunny 88 31.1 69 20.6 54 54 ESE 8 13 29.85 1011 10 16 0.00 0.00
5:53 pm 17:53 Mostly Sunny 87 30.6 70 21.1 57 57 SE 9 15 29.84 1010 10 16 0.00 0.00
6:53 pm 18:53 Sunny 86 30 69 20.6 57 57 SE 8 13 29.84 1010 10 16 0.00 0.00
7:53 pm 19:53 Sunny 83 28.3 69 20.6 63 63 SSE 9 15 29.83 1010 10 16 0.00 0.00
8:53 pm 20:53 Sunny 78 25.6 69 20.6 74 74 SE 6 9 29.84 1011 10 16 0.00 0.00
9:53 pm 21:53 Clear 76 24.4 69 20.6 79 79 SE 7 11 29.85 1011 10 16 0.00 0.00
10:53 pm 22:53 Clear 72 22.2 69 20.6 91 91 E 6 9 29.85 1011 10 16 0.00 0.00
11:53 pm 23:53 Clear 72 22.2 68 20 87 87 ESE 5 7 29.84 1011 10 16 0.00 0.00

Powered by AerisWeather